Location: Strawberry
(45.6646°N, 111.9596°W)
Time: 21:46:14
(UTC+00:00)

Courier 1B Rocket - Pass Details

Date: 13 October 2022
Orbit: 920 x 1202 km, 28.3° (Epoch: 03 December)

Event Time Altitude Azimuth Distance (km) Brightness Sun altitude
Rises 21:53:42 0° 220° (SW) 4,081 9.6 25.5°
Reaches altitude 10° 21:57:53 10° 200° (SSW) 3,097 8.9 25.0°
Maximum altitude 22:02:09 16° 166° (SSE) 2,643 7.8 24.5°
Drops below altitude 10° 22:06:19 10° 132° (SE) 3,017 7.6 23.9°
Sets 22:10:19 0° 112° (ESE) 3,923 7.9 23.4°
